Flag for Russia Weather past 2 weeks in Yakutsk, Russia

Now
45 °F

Sunny.


Feels Like: 43 °F
Forecast: 35 / 56 °F
Wind: 3 mph from Southwest

Location: Jakutsk

Current Time: Sep 1, 2014 at 10:03:25 PM

Latest Report: Sep 1, 2014 at 9:30 PM


Visibility: 10 mi

Pressure: 29.98 "Hg

Humidity: 76%

Dew point: 37 °F

Location of YakutskLocation

Historic Weather in Yakutsk — Graph

°F

Yakutsk temperature yesterday

Maximum temperature yesterday: 52 °F (at 12:00 AM)
Minimum temperature yesterday: 41 °F (at 5:30 PM)
Average temperature yesterday: 45 °F

Past Weeks' High & Low Weather Summary

 TemperatureHumidityPressure
High84 °F (Aug 19, 3:30 PM)100% (Aug 19, 3:30 AM)30.09 "Hg (Aug 19, 3:30 AM)
Low39 °F (Sep 1, 6:30 AM)31% (Aug 19, 3:30 PM)29.33 "Hg (Aug 21, 12:00 PM)
Average60 °F73%29.83 "Hg
* Reported Aug 17 9:00 PM — Sep 1 9:00 PM, Yakutsk, Weather by CustomWeather, © 2014

Note: Actual official high and low records may vary slightly from our data, if they occured in-between our weather recording intervals... More about our weather records

Advertising

Yakutsk weather history for previous 24 hours

 ConditionsComfort  
Time TempWeatherWind HumidityBarometerVisibility
9:00 PM
Sep 1
48 °FSunny.3 mph66%29.98 "Hg10 mi
8:30 PM50 °FSunny.3 mph62%29.98 "Hg10 mi
8:00 PM52 °FSunny.3 mph54%29.95 "Hg10 mi
7:30 PM54 °FSunny.6 mph51%29.95 "Hg10 mi
7:00 PM55 °FSunny.6 mph44%29.95 "Hg10 mi
6:30 PM55 °FSunny.6 mph47%29.95 "Hg10 mi
6:00 PM55 °FSunny.8 mph47%29.95 "Hg10 mi
5:30 PM57 °FSunny.8 mph44%29.95 "Hg10 mi
5:00 PM57 °FSunny.6 mph39%29.98 "Hg10 mi
4:30 PM57 °FSunny.6 mph39%29.98 "Hg10 mi
4:00 PM57 °FSunny.6 mph36%29.98 "Hg10 mi
3:30 PM57 °FSunny.3 mph41%29.98 "Hg10 mi
3:00 PM54 °FSunny.6 mph47%29.98 "Hg10 mi
2:30 PM55 °FSunny.10 mph44%29.98 "Hg10 mi
2:00 PM55 °FPassing clouds.10 mph44%29.98 "HgN/A
1:30 PM57 °FPassing clouds.8 mph39%29.98 "HgN/A
1:00 PM55 °FSunny.10 mph41%30.01 "Hg10 mi
12:30 PM52 °FSunny.3 mph50%30.01 "Hg10 mi
12:00 PM52 °FSunny.10 mph47%30.01 "Hg10 mi
11:30 AM52 °FSunny.8 mph47%30.01 "Hg10 mi
11:00 AM52 °FPassing clouds.8 mph47%30.01 "HgN/A
10:30 AM52 °FPassing clouds.6 mph50%30.01 "HgN/A
10:00 AM48 °FSunny.8 mph58%30.01 "Hg10 mi
9:30 AM46 °FSunny.10 mph62%30.01 "Hg10 mi
9:00 AM45 °FSunny.8 mph66%30.01 "Hg10 mi
8:30 AM43 °FSunny.8 mph76%30.01 "Hg10 mi
8:00 AM41 °FSunny.8 mph81%30.01 "Hg10 mi
7:30 AM39 °FSunny.6 mph87%30.01 "Hg10 mi
7:00 AM39 °FClear.8 mph87%30.01 "Hg10 mi
6:30 AM39 °FClear.8 mph87%30.01 "Hg10 mi
6:00 AM41 °FClear.8 mph81%29.98 "Hg10 mi
5:30 AM41 °FClear.8 mph81%29.98 "Hg10 mi
5:00 AM41 °FClear.8 mph81%29.98 "Hg10 mi
4:30 AM41 °FClear.8 mph81%29.98 "Hg10 mi
4:00 AM43 °FClear.8 mph76%29.98 "Hg10 mi
3:30 AM43 °FClear.8 mph81%29.98 "Hg10 mi
3:00 AM41 °FClear.8 mph87%29.98 "Hg10 mi
2:30 AM41 °FClear.8 mph87%29.98 "Hg10 mi
2:00 AM43 °FMostly cloudy.8 mph81%29.98 "HgN/A
1:30 AM43 °FMostly cloudy.8 mph87%29.98 "HgN/A
1:00 AM43 °FMostly cloudy.6 mph87%29.98 "HgN/A
12:30 AM43 °FMostly cloudy.8 mph87%29.98 "HgN/A
12:00 AM43 °FMostly cloudy.8 mph87%29.98 "HgN/A
11:30 PM
Aug 31
43 °FMostly cloudy.6 mph87%29.98 "HgN/A
11:00 PM43 °FMostly cloudy.6 mph87%29.98 "HgN/A
10:30 PM43 °FMostly cloudy.8 mph87%29.98 "HgN/A
10:00 PM43 °FOvercast.6 mph87%29.98 "HgN/A
Weather by CustomWeather, © 2014

See weather overviewHow to use our weather pages